Regional Weather Roundup
Issued by NWS

Home | Current Version | Previous Version | Graphics & Text | Print | Product List | Glossary On
Versions: 1 2 3 4 5 6 7 8 9 10 11 12 13 14 15 16 17 18 19 20 21 22 23 24 25 26 27 28 29 30 31 32 33 34 35 36 37 38 39 40 41 42 43 44 45 46 47 48 49 50
965
ASUS45 KABQ 100401
RWRNM
NEW MEXICO REGIONAL WEATHER ROUNDUP
NATIONAL WEATHER SERVICE ALBUQUERQUE NM
900 PM MST FRI DEC 09 2016

NOTE: "FAIR" MEANS FEW OR NO CLOUDS BELOW 12,000 FEET AGL WITH NO
       SIGNIFICANT WEATHER OR OBSTRUCTIONS TO VISION.

      THIS PRODUCT IS RELEASED AS TWO VERSIONS.  ONE VERSION NEAR
      THE TOP OF THE HOUR CONTAINING PRELIMINARY DATA FROM ALBUQUERQUE
      AND OTHER STATIONS.  A FINAL VERSION WITH ADDITIONAL DATA IS
      ISSUED ABOUT 10 MINUTES AFTER THE HOUR.

NMZ501-503-504-510>518-100500-
NORTHWEST PLATEAU/NORTHCENTRAL MOUNTAINS

CITY           SKY/WX    TMP DP  RH WIND       PRES   REMARKS
FARMINGTON     FAIR      29  22  75 N7        30.26S WCI  22
LOS ALAMOS     FAIR      40  22  49 CALM      30.30S
SANTA FE       FAIR      29  22  75 N5        30.28S WCI  24
TAOS           FAIR      28  16  59 E3        30.28F
ANGEL FIRE     FAIR      29  21  71 SE5       30.28F WCI  24

$$
NMZ402-403-502-505>509-100500-
WESTCENTRAL MOUNTAINS/SOUTHWEST MOUNTAINS

CITY           SKY/WX    TMP DP  RH WIND       PRES   REMARKS
GALLUP         FAIR      29  25  85 CALM      30.29S
GRANTS         FAIR      29  23  78 S3        30.32S
SILVER CITY    FAIR      31  29  90 CALM      30.30S

$$
NMZ407-409-411-412-100500-
SOUTHERN DESERTS

CITY           SKY/WX    TMP DP  RH WIND       PRES   REMARKS
DEMING         FAIR      35  29  78 N5        30.30S WCI  31
LAS CRUCES     FAIR      33  27  79 CALM      30.31S
HOLLOMAN AFB   FAIR      31  22  68 NE9       30.36R WCI  23
T OR C         FAIR      37  26  64 NW6       30.29R WCI  32

$$
NMZ519>523-100500-
CENTRAL VALLEYS/CENTRAL HIGHLANDS

CITY           SKY/WX    TMP DP  RH WIND       PRES   REMARKS
ALBUQUERQUE    FAIR      35  25  66 E3        30.30S
DOUBLE EAGLE   PTCLDY    27  21  80 SW8       30.31R WCI  18
CLINES CORNERS FAIR      28  21  75 W10       30.29S WCI  19
BELEN          FAIR      32  22  67 S5        30.30F WCI  27
SOCORRO        FAIR      36  27  69 SW7       30.30S WCI  30

$$
NMZ524>526-539-540-100500-
SOUTHCENTRAL MOUNTAINS

CITY           SKY/WX    TMP DP  RH WIND       PRES   REMARKS
RUIDOSO        FAIR      37  25  60 NW6       30.32S WCI  33

$$
NMZ527>531-100500-
NORTHEAST HIGHLANDS/NORTHEAST PLAINS

CITY           SKY/WX    TMP DP  RH WIND       PRES   REMARKS
LAS VEGAS      FAIR      28  18  66 SW3       30.22S
RATON          FAIR      32  18  56 N3        30.16S
CLAYTON        FAIR      36  29  75 SW8       30.15F WCI  30

$$
NMZ532>537-100500-
EASTCENTRAL PLAINS

CITY           SKY/WX    TMP DP  RH WIND       PRES   REMARKS
TUCUMCARI      FAIR      34  26  72 S5        30.15R WCI  30
CANNON AFB     FAIR      30  30 100 CALM      30.21R
CLOVIS AIRPORT FAIR      28  21  74 S6        30.22R WCI  22

$$
NMZ028-029-538-100500-
SOUTHEAST PLAINS

CITY           SKY/WX    TMP DP  RH WIND       PRES   REMARKS
ROSWELL        FAIR      28  25  88 W3        30.24R
ARTESIA        FAIR      28  28 100 SW5       30.25S WCI  23
CARLSBAD       NOT AVBL


$$




USA.gov is the U.S. government's official web portal to all federal, state and local government web resources and services.